Flag for U.S.A. Weather past 2 weeks in Cheyenne, Wyoming, U.S.A.

Now
84 °F

Sunny.


Feels Like: 81 °F
Forecast: 54 / 83 °F
Wind: 9 mph from Southwest

Location: Cheyenne Airport

Current Time: Sep 18, 2014 at 12:28:47 PM

Latest Report: Sep 18, 2014 at 11:53 AM


Visibility: 10 mi

Pressure: 29.81 "Hg

Humidity: 15%

Dew point: 31 °F

Location of CheyenneLocation

Historic Weather in Cheyenne — Graph

°F

Cheyenne temperature yesterday

Maximum temperature yesterday: 86 °F (at 1:53 PM)
Minimum temperature yesterday: 51 °F (at 5:53 AM)
Average temperature yesterday: 66 °F

Past Weeks' High & Low Weather Summary

 TemperatureHumidityPressure
High89 °F (Sep 3, 1:53 PM)100% (Sep 6, 6:00 AM)30.53 "Hg (Sep 6, 6:00 AM)
Low29 °F (Sep 11, 9:53 PM)10% (Sep 3, 1:53 PM)29.61 "Hg (Sep 3, 4:53 PM)
Average57 °F59%30.02 "Hg
* Reported Sep 3 10:53 AM — Sep 18 10:53 AM, Cheyenne, Weather by CustomWeather, © 2014

Note: Actual official high and low records may vary slightly from our data, if they occured in-between our weather recording intervals... More about our weather records

Advertising

Cheyenne weather history for previous 24 hours

 ConditionsComfort  
Time TempWeatherWind HumidityBarometerVisibility
10:53 AM
Sep 18
82 °FSunny.7 mph18%29.83 "Hg10 mi
9:53 AM78 °FSunny.5 mph25%29.84 "Hg10 mi
8:53 AM69 °FSunny.6 mph36%29.87 "Hg10 mi
7:53 AM58 °FSunny.10 mph50%29.88 "Hg10 mi
6:53 AM53 °FClear.10 mph56%29.87 "Hg10 mi
5:53 AM53 °FClear.14 mph59%29.85 "Hg10 mi
4:53 AM53 °FClear.12 mph61%29.86 "Hg10 mi
3:53 AM54 °FClear.9 mph59%29.84 "Hg10 mi
2:53 AM53 °FClear.9 mph61%29.85 "Hg10 mi
1:53 AM53 °FClear.9 mph64%29.84 "Hg10 mi
12:53 AM54 °FClear.7 mph64%29.86 "Hg10 mi
11:53 PM
Sep 17
56 °FClear.7 mph58%29.86 "Hg10 mi
10:53 PM57 °FClear.7 mph55%29.87 "Hg10 mi
9:53 PM58 °FClear.8 mph54%29.88 "Hg10 mi
8:53 PM60 °FClear.6 mph53%29.90 "Hg10 mi
7:53 PM66 °FSunny.6 mph43%29.89 "Hg10 mi
6:53 PM73 °FSunny.No wind28%29.88 "Hg10 mi
5:53 PM76 °FSunny.7 mph26%29.87 "Hg10 mi
4:53 PM73 °FLight rain. Mostly cloudy.8 mph32%29.89 "Hg10 mi
3:53 PM78 °FSunny.15 mph27%29.85 "Hg10 mi
3:00 PM77 °FScattered clouds.24 mph28%30.09 "Hg10 mi
1:53 PM86 °FScattered clouds.9 mph11%29.81 "Hg10 mi
12:53 PM81 °FPassing clouds.3 mph20%29.84 "Hg10 mi
Weather by CustomWeather, © 2014

See weather overviewHow to use our weather pages